This demonstration page uses our WeatherBlox Daily Observations layout. Learn more.

41.55636, -103.73856

Hourly Observations for August 15, 2019

Temp ( °F °C ) Dew Point ( °F °C ) Humidity (%) Winds ( mph kmh ) Pressure ( in mb ) Visibility ( mi km ) Precip ( " mm )
12:58 am 00:58 Clear 72 22 60 15.6 67 67 ESE 18 30 30.04 1017 10 16.0934 0 0
1:58 am 01:58 Mostly Clear 68 20.2 60 15.5 75 75 ESE 13 20 30.05 1018 10 16.0934 0 0
2:58 am 02:58 Clear 65 18.6 59 15.2 81 81 SE 16 26 30.07 1018 10 16.0934 0 0
3:58 am 03:58 Clear 64 17.9 59 14.9 83 83 SSE 21 33 30.05 1018 10 16.0934 0 0
4:58 am 04:58 Clear 63 17.3 58 14.6 84 84 S 26 43 30.02 1017 10 16.0934 0 0
5:58 am 05:58 Clear 62 16.6 58 14.4 87 87 S 16 26 30.02 1017 10 16.0934 0 0
6:58 am 06:58 Clear 63 17.3 58 14.6 84 84 SSW 24 39 29.98 1015 10 16.0934 0 0
7:58 am 07:58 Mostly Cloudy 65 18.2 58 14.2 78 78 SSW 25 41 29.93 1014 10 16.0934 0 0
8:58 am 08:58 Clear 64 17.9 56 13.6 76 76 SSW 21 33 29.92 1013 10 16.0934 0 0
9:58 am 09:58 Clear 61 16.1 56 13.4 84 84 SSW 18 30 29.92 1013 10 16.0934 0 0
10:58 am 10:58 Mostly Clear 57 13.7 54 12.4 92 92 ENE 9 15 29.99 1016 10 16.0934 0 0
11:58 am 11:58 Mostly Cloudy with Mist and Fog 58 14.2 56 13.4 95 95 NE 9 15 30.02 1017 3 4.82802 0 0
12:58 pm 12:58 Cloudy with Mist and Fog 58 14.6 57 13.8 95 95 E 3 6 30.04 1017 5 8.0467 0 0
1:58 pm 13:58 Mostly Cloudy 58 14.6 56 13.4 93 93 E 10 17 30.06 1018 10 16.0934 0 0
2:59 pm 14:59 Cloudy 59 15 57 13.9 93 93 Calm 30.06 1018 10 16.0934 0 0
3:58 pm 15:58 Mostly Cloudy 64 17.8 57 14.1 79 79 SW 5 7 30.04 1017 10 16.0934 0 0
4:58 pm 16:58 Sunny 70 21.3 58 14.3 64 64 NW 8 13 30.02 1017 10 16.0934 0 0
5:58 pm 17:58 Sunny 74 23.1 57 13.7 56 56 NW 6 9 29.99 1016 10 16.0934 0 0
6:58 pm 18:58 Sunny 76 24.6 56 13.2 49 49 Calm 29.96 1014 10 16.0934 0 0
7:58 pm 19:58 Sunny 80 26.5 51 10.4 36 36 NE 12 19 29.92 1013 10 16.0934 0 0
8:58 pm 20:58 Sunny 80 26.8 52 11.2 38 38 ENE 17 28 29.91 1013 10 16.0934 0 0
9:58 pm 21:58 Sunny 81 27.3 50 10.1 34 34 ESE 13 20 29.92 1013 10 16.0934 0 0
10:58 pm 22:58 Sunny 76 24.4 54 12.4 47 47 ENE 18 30 29.94 1014 10 16.0934 0 0
11:59 pm 23:59 Sunny 75 23.8 54 12.3 49 49 E 20 31 29.94 1014 10 16.0934 0 0

Powered by AerisWeather